When you browse on this site, cookies collect data to enhance your experience and personalize the content and advertising you see.
Visit our Privacy Policy to learn more. By continuing to use the site, you agree to this use of cookies and data.
  • In Sweden
  • List of Countries
  • For 7 days
  • Water Temperature
  • Satellite Maps
  • Weather Map
  • Weather Widgets
  • user-avatar
    Login

    Hourly Weather Thousand Oaks

    Today, 17 July, Wednesday

    Time Temperature Precipitation Wind Pressure Humidity
    00:00 +20°C° 0 mm 1 mps 717 mmHg 72%
    01:00 +19°C° 0 mm 2 mps 717 mmHg 73%
    02:00 +18°C° 0 mm 2 mps 717 mmHg 76%
    03:00 +19°C° 0 mm 1 mps 717 mmHg 79%
    04:00 +18°C° 0 mm 1 mps 717 mmHg 81%
    05:00 +20°C° 0 mm 1 mps 718 mmHg 75%
    06:00 +21°C° 0 mm 1 mps 718 mmHg 69%
    07:00 +23°C° 0 mm 1 mps 719 mmHg 63%
    08:00 +24°C° 0 mm 2 mps 719 mmHg 58%
    09:00 +26°C° 0 mm 2 mps 719 mmHg 52%
    10:00 +27°C° 0 mm 3 mps 719 mmHg 47%
    11:00 +28°C° 0 mm 3 mps 719 mmHg 46%
    12:00 +28°C° 0 mm 3 mps 719 mmHg 45%
    13:00 +29°C° 0 mm 3 mps 719 mmHg 44%
    14:00 +28°C° 0 mm 3 mps 719 mmHg 45%
    15:00 +28°C° 0 mm 3 mps 719 mmHg 46%
    16:00 +27°C° 0 mm 3 mps 718 mmHg 47%
    17:00 +25°C° 0 mm 3 mps 718 mmHg 53%
    18:00 +23°C° 0 mm 2 mps 718 mmHg 60%
    19:00 +20°C° 0 mm 2 mps 718 mmHg 67%
    20:00 +19°C° 0 mm 2 mps 718 mmHg 71%
    21:00 +19°C° 0 mm 1 mps 718 mmHg 74%
    22:00 +18°C° 0 mm 1 mps 719 mmHg 77%
    23:00 +18°C° 0 mm 1 mps 719 mmHg 79%

    Tomorrow, 18 July, Thursday

    Time Temperature Precipitation Wind Pressure Humidity
    00:00 +18°C° 0 mm 1 mps 719 mmHg 80%
    01:00 +18°C° 0 mm 1 mps 719 mmHg 82%
    02:00 +16°C° 0 mm 1 mps 719 mmHg 82%
    03:00 +16°C° 0 mm 1 mps 719 mmHg 83%
    04:00 +16°C° 0 mm 1 mps 718 mmHg 83%
    05:00 +18°C° 0 mm 1 mps 719 mmHg 79%
    06:00 +19°C° 0 mm 1 mps 719 mmHg 75%
    07:00 +20°C° 0 mm 1 mps 720 mmHg 71%
    08:00 +21°C° 0 mm 2 mps 720 mmHg 64%
    09:00 +24°C° 0 mm 2 mps 720 mmHg 57%
    10:00 +25°C° 0 mm 3 mps 720 mmHg 50%
    11:00 +26°C° 0 mm 3 mps 720 mmHg 48%
    12:00 +26°C° 0 mm 3 mps 720 mmHg 46%
    13:00 +27°C° 0 mm 4 mps 719 mmHg 44%
    14:00 +26°C° 0 mm 3 mps 719 mmHg 44%
    15:00 +25°C° 0 mm 3 mps 719 mmHg 45%
    16:00 +25°C° 0 mm 3 mps 718 mmHg 46%
    17:00 +22°C° 0 mm 3 mps 718 mmHg 53%
    18:00 +20°C° 0 mm 2 mps 718 mmHg 60%
    19:00 +18°C° 0 mm 2 mps 718 mmHg 68%
    20:00 +18°C° 0 mm 1 mps 718 mmHg 72%
    21:00 +16°C° 0 mm 1 mps 718 mmHg 76%
    22:00 +14°C° 0 mm 0 mps 718 mmHg 80%
    23:00 +14°C° 0 mm 0 mps 718 mmHg 79%

    Day after tomorrow, 19 July, Friday

    Time Temperature Precipitation Wind Pressure Humidity
    00:00 +14°C° 0 mm 0 mps 718 mmHg 78%
    01:00 +13°C° 0 mm 0 mps 718 mmHg 77%
    02:00 +13°C° 0 mm 0 mps 718 mmHg 78%
    03:00 +13°C° 0 mm 0 mps 717 mmHg 80%
    04:00 +12°C° 0 mm 0 mps 717 mmHg 81%
    05:00 +14°C° 0 mm 0 mps 718 mmHg 76%
    06:00 +15°C° 0 mm 0 mps 718 mmHg 70%
    07:00 +19°C° 0 mm 1 mps 718 mmHg 64%
    08:00 +21°C° 0 mm 1 mps 719 mmHg 58%
    09:00 +21°C° 0 mm 2 mps 719 mmHg 52%
    10:00 +24°C° 0 mm 3 mps 719 mmHg 46%
    11:00 +24°C° 0 mm 3 mps 719 mmHg 46%
    12:00 +25°C° 0 mm 3 mps 719 mmHg 45%
    13:00 +25°C° 0 mm 3 mps 719 mmHg 45%
    14:00 +25°C° 0 mm 3 mps 718 mmHg 47%
    15:00 +24°C° 0 mm 3 mps 718 mmHg 48%
    16:00 +24°C° 0 mm 3 mps 717 mmHg 50%
    17:00 +21°C° 0 mm 3 mps 718 mmHg 56%
    18:00 +19°C° 0 mm 3 mps 718 mmHg 62%
    19:00 +18°C° 0 mm 3 mps 718 mmHg 68%
    20:00 +17°C° 0 mm 2 mps 718 mmHg 71%
    21:00 +16°C° 0 mm 2 mps 718 mmHg 75%
    22:00 +15°C° 0 mm 1 mps 718 mmHg 78%
    23:00 +15°C° 0 mm 1 mps 718 mmHg 79%

    20 July, Saturday

    Time Temperature Precipitation Wind Pressure Humidity
    00:00 +15°C° 0 mm 1 mps 718 mmHg 79%
    01:00 +14°C° 0 mm 0 mps 718 mmHg 80%
    02:00 +13°C° 0 mm 0 mps 718 mmHg 81%
    03:00 +13°C° 0 mm 0 mps 718 mmHg 82%
    04:00 +13°C° 0 mm 0 mps 718 mmHg 83%
    05:00 +14°C° 0 mm 0 mps 718 mmHg 78%
    06:00 +15°C° 0 mm 0 mps 718 mmHg 73%
    07:00 +17°C° 0 mm 0 mps 719 mmHg 68%
    08:00 +21°C° 0 mm 1 mps 719 mmHg 61%
    09:00 +21°C° 0 mm 2 mps 719 mmHg 55%
    10:00 +24°C° 0 mm 2 mps 719 mmHg 48%
    11:00 +25°C° 0 mm 3 mps 719 mmHg 47%
    12:00 +25°C° 0 mm 3 mps 719 mmHg 47%
    13:00 +26°C° 0 mm 4 mps 719 mmHg 46%
    14:00 +26°C° 0 mm 4 mps 718 mmHg 46%
    15:00 +25°C° 0 mm 4 mps 718 mmHg 46%
    16:00 +25°C° 0 mm 4 mps 717 mmHg 46%
    17:00 +22°C° 0 mm 4 mps 717 mmHg 52%
    18:00 +20°C° 0 mm 3 mps 717 mmHg 58%
    19:00 +18°C° 0 mm 3 mps 717 mmHg 63%
    20:00 +18°C° 0 mm 2 mps 717 mmHg 65%
    21:00 +17°C° 0 mm 2 mps 718 mmHg 68%
    22:00 +16°C° 0 mm 1 mps 718 mmHg 70%
    23:00 +16°C° 0 mm 1 mps 718 mmHg 71%

    21 July, Sunday

    Time Temperature Precipitation Wind Pressure Humidity
    00:00 +16°C° 0 mm 1 mps 718 mmHg 72%
    01:00 +16°C° 0 mm 1 mps 717 mmHg 73%
    02:00 +16°C° 0 mm 1 mps 717 mmHg 74%
    03:00 +15°C° 0 mm 0 mps 717 mmHg 74%
    04:00 +14°C° 0 mm 0 mps 717 mmHg 75%
    05:00 +16°C° 0 mm 0 mps 718 mmHg 70%
    06:00 +19°C° 0 mm 1 mps 718 mmHg 64%
    07:00 +21°C° 0 mm 1 mps 718 mmHg 59%
    08:00 +23°C° 0 mm 1 mps 719 mmHg 52%
    09:00 +25°C° 0 mm 2 mps 719 mmHg 45%
    10:00 +28°C° 0 mm 2 mps 719 mmHg 38%
    11:00 +28°C° 0 mm 3 mps 719 mmHg 36%
    12:00 +29°C° 0 mm 3 mps 719 mmHg 35%
    13:00 +30°C° 0 mm 4 mps 718 mmHg 34%
    14:00 +29°C° 0 mm 4 mps 718 mmHg 34%
    15:00 +29°C° 0 mm 4 mps 718 mmHg 33%
    16:00 +29°C° 0 mm 4 mps 717 mmHg 33%
    17:00 +26°C° 0 mm 4 mps 717 mmHg 39%
    18:00 +24°C° 0 mm 3 mps 717 mmHg 46%
    19:00 +21°C° 0 mm 3 mps 717 mmHg 52%
    20:00 +20°C° 0 mm 2 mps 717 mmHg 55%
    21:00 +20°C° 0 mm 1 mps 718 mmHg 57%
    22:00 +19°C° 0 mm 1 mps 718 mmHg 60%
    23:00 +19°C° 0 mm 1 mps 718 mmHg 61%

    22 July, Monday

    Time Temperature Precipitation Wind Pressure Humidity
    00:00 +19°C° 0 mm 1 mps 718 mmHg 63%
    01:00 +19°C° 0 mm 1 mps 718 mmHg 64%
    02:00 +17°C° 0.1 mm 0 mps 718 mmHg 64%
    03:00 +17°C° 0.1 mm 0 mps 718 mmHg 63%
    04:00 +17°C° 0.1 mm 0 mps 718 mmHg 63%
    05:00 +20°C° 0 mm 1 mps 718 mmHg 58%
    06:00 +22°C° 0 mm 1 mps 719 mmHg 53%
    07:00 +23°C° 0 mm 1 mps 719 mmHg 48%
    08:00 +25°C° 0 mm 1 mps 719 mmHg 44%
    09:00 +26°C° 0 mm 2 mps 719 mmHg 41%
    10:00 +28°C° 0 mm 2 mps 720 mmHg 38%
    11:00 +29°C° 0 mm 2 mps 719 mmHg 37%
    12:00 +30°C° 0 mm 3 mps 719 mmHg 35%
    13:00 +31°C° 0 mm 3 mps 719 mmHg 34%
    14:00 +30°C° 0 mm 4 mps 719 mmHg 34%
    15:00 +30°C° 0 mm 4 mps 719 mmHg 35%
    16:00 +29°C° 0 mm 4 mps 718 mmHg 35%
    17:00 +27°C° 0 mm 3 mps 718 mmHg 40%
    18:00 +25°C° 0 mm 3 mps 718 mmHg 46%
    19:00 +21°C° 0 mm 2 mps 718 mmHg 51%
    20:00 +21°C° 0 mm 2 mps 719 mmHg 54%
    21:00 +21°C° 0 mm 1 mps 719 mmHg 57%
    22:00 +20°C° 0 mm 1 mps 719 mmHg 60%
    23:00 +18°C° 0 mm 0 mps 719 mmHg 59%
    Show more